TimePST,TemperatureF,Dew PointF,Humidity,Sea Level PressureIn,VisibilityMPH,Wind Direction,Wind SpeedMPH,Gust SpeedMPH,PrecipitationIn,Events,Conditions,WindDirDegrees,DateUTC
12:56 AM,56.8,28.0,33,30.00,10.0,South,11.5,-,N/A,,Clear,170,2012-11-29 08:56:00
1:56 AM,57.9,32.0,37,30.00,10.0,South,13.8,-,N/A,,Clear,180,2012-11-29 09:56:00
2:56 AM,59.9,37.9,44,29.99,10.0,South,13.8,-,N/A,,Mostly Cloudy,190,2012-11-29 10:56:00
3:56 AM,59.9,39.9,48,29.99,10.0,South,15.0,-,N/A,,Partly Cloudy,190,2012-11-29 11:56:00
4:56 AM,59.9,36.9,42,30.00,10.0,South,12.7,-,N/A,,Mostly Cloudy,180,2012-11-29 12:56:00
5:56 AM,59.0,32.9,37,30.00,10.0,South,12.7,-,N/A,,Clear,180,2012-11-29 13:56:00
6:56 AM,59.9,34.0,38,30.02,10.0,South,12.7,-,N/A,,Partly Cloudy,170,2012-11-29 14:56:00
7:56 AM,63.0,43.0,48,30.05,10.0,SSW,12.7,-,N/A,,Mostly Cloudy,200,2012-11-29 15:56:00
8:56 AM,65.8,43.9,45,30.04,10.0,SSW,17.3,-,N/A,,Partly Cloudy,210,2012-11-29 16:56:00
9:56 AM,66.9,43.0,42,30.04,10.0,SSW,21.9,-,N/A,,Clear,210,2012-11-29 17:56:00
10:56 AM,68.0,41.9,39,30.03,10.0,SW,25.3,-,N/A,,Clear,220,2012-11-29 18:56:00
11:56 AM,68.9,43.0,39,30.01,10.0,SW,21.9,-,N/A,,Clear,220,2012-11-29 19:56:00
12:56 PM,70.0,41.0,35,29.98,10.0,SSW,19.6,-,N/A,,Clear,200,2012-11-29 20:56:00
1:56 PM,68.9,41.9,37,29.96,10.0,WSW,21.9,-,N/A,,Clear,240,2012-11-29 21:56:00
2:56 PM,66.9,41.0,39,29.96,10.0,SW,16.1,-,N/A,,Clear,230,2012-11-29 22:56:00
3:56 PM,66.2,41.0,40,30.07,10.0,SW,10.4,-,N/A,,Clear,230,2012-11-29 23:56:00
4:56 PM,63.9,41.0,43,29.97,10.0,SSW,10.4,-,N/A,,Clear,210,2012-11-30 00:56:00
5:56 PM,63.9,39.9,41,29.98,10.0,SSW,13.8,-,N/A,,Clear,200,2012-11-30 01:56:00
6:56 PM,62.6,41.0,45,30.09,10.0,SW,9.2,-,N/A,,Clear,230,2012-11-30 02:56:00
7:56 PM,61.0,41.9,49,30.00,10.0,SSE,8.1,-,N/A,,Clear,150,2012-11-30 03:56:00
8:56 PM,59.9,43.0,54,30.00,10.0,South,10.4,-,N/A,,Clear,180,2012-11-30 04:56:00
9:56 PM,61.0,41.9,49,29.99,10.0,SSW,11.5,-,N/A,,Clear,200,2012-11-30 05:56:00
10:56 PM,59.0,41.0,51,29.98,10.0,SE,8.1,-,N/A,,Clear,140,2012-11-30 06:56:00
11:56 PM,59.0,41.0,51,29.98,10.0,SSW,13.8,-,N/A,,Clear,210,2012-11-30 07:56:00